Вернуться в каталог

QIANFAN-205

АктивенСвязьPO
NORAD 69804·PAYLOAD·🇨🇳 China

Запущен Jul 4, 2026 с Taiyuan Satellite Launch Center

Loading…

Ближайшие Пролёты (ближайшие 24 часа)

TLE

СвежийSource: Space-Track

Эпоха: Sep 14, 2026, 12:26 UTC

1 69804U 26153E   26257.51864265 -.01823741  00000-0 -13077+1 0  9999
2 69804  88.9974 352.1396 0008166 348.8816  11.2182 14.01404206 10202

Отслеживайте QIANFAN-205 в реальном времени с AllMySat

Download on the App Store